Location: Burbank
(38.7788°N, 114.0429°W)
Time: 23:10:49
(UTC+00:00)

S-56A Canister/Altair - Pass Details

Date: 12 May 2026
Orbit: 633 x 2484 km, 38.9° (Epoch: 1 June)

Event Time Altitude Azimuth Distance (km) Brightness Sun altitude
Rises 04:00:00 0° 223° (SW) 3,023 10.7 -14.4°
Reaches altitude 10° 04:02:37 10° 211° (SSW) 2,030 9.6 -14.8°
Maximum altitude 04:06:29 29° 151° (SSE) 1,166 7.9 -15.4°
Enters shadow 04:07:14 27° 132° (SE) 1,216 7.9 -15.5°
Drops below altitude 10° 04:10:28 10° 91° (E) 2,101 - -16.0°
Sets 04:13:14 0° 80° (E) 3,150 - -16.4°
